TimeCST,TemperatureF,Dew PointF,Humidity,Sea Level PressureIn,VisibilityMPH,Wind Direction,Wind SpeedMPH,Gust SpeedMPH,PrecipitationIn,Events,Conditions,WindDirDegrees,DateUTC
12:53 AM,19.9,14.0,78,30.45,7.0,NW,8.1,-,0.00,,Overcast,320,2013-03-06 06:53:00
1:53 AM,19.0,14.0,81,30.46,8.0,NW,8.1,-,N/A,,Overcast,320,2013-03-06 07:53:00
2:53 AM,19.0,14.0,81,30.45,7.0,NW,6.9,-,N/A,,Overcast,310,2013-03-06 08:53:00
3:53 AM,19.0,12.9,77,30.45,8.0,NW,6.9,-,N/A,,Overcast,320,2013-03-06 09:53:00
4:53 AM,18.0,14.0,84,30.46,6.0,NW,5.8,-,N/A,,Overcast,320,2013-03-06 10:53:00
5:53 AM,18.0,12.9,81,30.48,7.0,NNW,5.8,-,N/A,,Overcast,330,2013-03-06 11:53:00
6:53 AM,18.0,12.9,81,30.49,6.0,NW,5.8,-,0.00,,Haze,320,2013-03-06 12:53:00
7:41 AM,17.6,14.0,86,30.43,2.0,NNW,5.8,-,0.00,Snow,Light Snow,340,2013-03-06 13:41:00
7:53 AM,18.0,14.0,84,30.49,3.0,NNW,4.6,-,0.00,Snow,Light Snow,340,2013-03-06 13:53:00
8:53 AM,19.0,14.0,81,30.49,3.0,North,4.6,-,0.00,Snow,Light Snow,350,2013-03-06 14:53:00
9:14 AM,19.4,14.0,80,30.44,2.5,North,3.5,-,0.00,Snow,Light Snow,360,2013-03-06 15:14:00
9:24 AM,19.4,14.0,80,30.44,3.0,North,3.5,-,0.00,Snow,Light Snow,360,2013-03-06 15:24:00
9:53 AM,19.9,14.0,78,30.49,4.0,NNE,4.6,-,0.00,Snow,Light Snow,30,2013-03-06 15:53:00
10:53 AM,21.9,15.1,75,30.47,3.0,North,4.6,-,0.00,Snow,Light Snow,360,2013-03-06 16:53:00
11:53 AM,24.1,15.1,69,30.46,10.0,Calm,Calm,-,0.00,,Overcast,0,2013-03-06 17:53:00
12:53 PM,23.0,12.9,65,30.44,10.0,NE,6.9,-,N/A,,Overcast,50,2013-03-06 18:53:00
1:53 PM,21.9,12.9,68,30.43,10.0,ESE,3.5,-,N/A,,Overcast,110,2013-03-06 19:53:00
2:53 PM,21.9,12.9,68,30.41,10.0,ENE,4.6,-,N/A,,Overcast,70,2013-03-06 20:53:00
3:53 PM,21.9,14.0,72,30.40,10.0,East,4.6,-,N/A,,Overcast,100,2013-03-06 21:53:00
4:53 PM,21.9,14.0,72,30.39,10.0,East,5.8,-,N/A,,Overcast,90,2013-03-06 22:53:00
5:50 PM,21.2,12.2,68,30.32,10.0,ESE,5.8,-,N/A,,Partly Cloudy,120,2013-03-06 23:50:00
5:53 PM,19.9,12.0,71,30.38,10.0,SE,5.8,-,N/A,,Partly Cloudy,130,2013-03-06 23:53:00
6:53 PM,17.1,10.0,74,30.38,10.0,East,4.6,-,N/A,,Clear,80,2013-03-07 00:53:00
7:53 PM,15.1,9.0,77,30.38,10.0,East,4.6,-,N/A,,Clear,80,2013-03-07 01:53:00
8:53 PM,12.9,8.1,81,30.39,10.0,Calm,Calm,-,N/A,,Clear,0,2013-03-07 02:53:00
9:53 PM,14.0,9.0,80,30.38,10.0,East,4.6,-,N/A,,Clear,100,2013-03-07 03:53:00
10:53 PM,12.0,8.1,84,30.36,10.0,SE,6.9,-,N/A,,Clear,130,2013-03-07 04:53:00
11:53 PM,10.9,8.1,88,30.37,10.0,SE,3.5,-,N/A,,Clear,140,2013-03-07 05:53:00